| time (UTC) | temp C | wind direction | speed KPH | gust KPH | rain 1hr cm | rain 24hr cm | rain mn cm | humidity % | barometer mb |
| 20260505011926 | 22 | 236 | 6.4 | 24.1 | 0.00 | 0.00 | 0.00 | 50 | 1007.7 |
| 20260505011422 | 23 | 235 | 9.7 | 17.7 | 0.00 | 0.00 | 0.00 | 49 | 1007.8 |
| 20260505010919 | 23 | 240 | 17.7 | 17.7 | 0.00 | 0.00 | 0.00 | 48 | 1007.8 |
| 20260505010415 | 23 | 249 | 8.0 | 27.4 | 0.00 | 0.00 | 0.00 | 48 | 1007.7 |
| 20260505005911 | 23 | 242 | 20.9 | 22.5 | 0.00 | 0.00 | 0.00 | 48 | 1007.7 |
| 20260505005408 | 23 | 246 | 8.0 | 33.8 | 0.00 | 0.00 | 0.00 | 48 | 1007.4 |
| 20260505004905 | 23 | 235 | 8.0 | 22.5 | 0.00 | 0.00 | 0.00 | 48 | 1007.6 |
| 20260505004402 | 23 | 247 | 11.3 | 19.3 | 0.00 | 0.00 | 0.00 | 47 | 1007.4 |
| 20260505003859 | 23 | 234 | 8.0 | 22.5 | 0.00 | 0.00 | 0.00 | 47 | 1007.5 |
| 20260505003356 | 23 | 243 | 12.9 | 25.7 | 0.00 | 0.00 | 0.00 | 47 | 1007.5 |
| 20260505002852 | 23 | 236 | 11.3 | 33.8 | 0.00 | 0.00 | 0.00 | 46 | 1007.2 |
| 20260505002349 | 23 | 225 | 16.1 | 20.9 | 0.00 | 0.00 | 0.00 | 46 | 1007.4 |
| 20260505001848 | 24 | 239 | 12.9 | 22.5 | 0.00 | 0.00 | 0.00 | 46 | 1007.5 |
| 20260505001344 | 24 | 235 | 8.0 | 19.3 | 0.00 | 0.00 | 0.00 | 46 | 1007.5 |
| 20260505000841 | 24 | 235 | 11.3 | 19.3 | 0.00 | 0.00 | 0.00 | 45 | 1007.4 |
| 20260505000339 | 24 | 240 | 8.0 | 17.7 | 0.00 | 0.00 | 0.00 | 45 | 1007.7 |
| 20260504235835 | 25 | 231 | 9.7 | 24.1 | 0.00 | 0.00 | 0.00 | 45 | 1007.8 |
| 20260504235333 | 25 | 240 | 14.5 | 25.7 | 0.00 | 0.00 | 0.00 | 44 | 1007.6 |
| 20260504234830 | 25 | 246 | 12.9 | 32.2 | 0.00 | 0.00 | 0.00 | 44 | 1007.6 |
| 20260504234327 | 25 | 252 | 11.3 | 27.4 | 0.00 | 0.00 | 0.00 | 44 | 1007.8 |
| 20260504233823 | 25 | 234 | 16.1 | 29.0 | 0.00 | 0.00 | 0.00 | 43 | 1007.9 |
| 20260504233319 | 25 | 235 | 8.0 | 32.2 | 0.00 | 0.00 | 0.00 | 43 | 1007.8 |
| 20260504232816 | 25 | 193 | 20.9 | 29.0 | 0.00 | 0.00 | 0.00 | 43 | 1007.8 |
| 20260504232313 | 25 | 251 | 17.7 | 24.1 | 0.00 | 0.00 | 0.00 | 43 | 1007.9 |
| 20260504231810 | 25 | 246 | 17.7 | 25.7 | 0.00 | 0.00 | 0.00 | 42 | 1007.9 |
| 20260504231306 | 25 | 237 | 17.7 | 24.1 | 0.00 | 0.00 | 0.00 | 43 | 1008.0 |
| 20260504230802 | 25 | 244 | 12.9 | 32.2 | 0.00 | 0.00 | 0.00 | 42 | 1007.9 |
| 20260504230301 | 25 | 236 | 32.2 | 43.5 | 0.00 | 0.00 | 0.00 | 41 | 1008.0 |
| 20260504225759 | 26 | 243 | 14.5 | 25.7 | 0.00 | 0.00 | 0.00 | 41 | 1008.0 |
| 20260504225255 | 26 | 228 | 14.5 | 29.0 | 0.00 | 0.00 | 0.00 | 41 | 1008.2 |
| 20260504224752 | 26 | 256 | 9.7 | 20.9 | 0.00 | 0.00 | 0.00 | 41 | 1008.1 |
| 20260504224250 | 26 | 242 | 22.5 | 22.5 | 0.00 | 0.00 | 0.00 | 41 | 1008.0 |
| 20260504223746 | 26 | 238 | 9.7 | 40.2 | 0.00 | 0.00 | 0.00 | 41 | 1008.1 |
| 20260504223241 | 26 | 228 | 29.0 | 29.0 | 0.00 | 0.00 | 0.00 | 41 | 1007.9 |
| 20260504222739 | 26 | 244 | 12.9 | 32.2 | 0.00 | 0.00 | 0.00 | 41 | 1008.1 |
| 20260504222235 | 26 | 248 | 9.7 | 33.8 | 0.00 | 0.00 | 0.00 | 41 | 1008.2 |
| 20260504221733 | 26 | 255 | 29.0 | 35.4 | 0.00 | 0.00 | 0.00 | 40 | 1008.0 |
| 20260504221230 | 26 | 217 | 11.3 | 20.9 | 0.00 | 0.00 | 0.00 | 41 | 1008.1 |
| 20260504220726 | 26 | 252 | 9.7 | 32.2 | 0.00 | 0.00 | 0.00 | 40 | 1008.2 |
| 20260504220224 | 26 | 235 | 20.9 | 27.4 | 0.00 | 0.00 | 0.00 | 40 | 1008.2 |
| 20260504215721 | 26 | 264 | 22.5 | 30.6 | 0.00 | 0.00 | 0.00 | 39 | 1008.0 |
| 20260504215218 | 26 | 235 | 22.5 | 29.0 | 0.00 | 0.00 | 0.00 | 40 | 1008.2 |
| 20260504214713 | 26 | 247 | 25.7 | 32.2 | 0.00 | 0.00 | 0.00 | 40 | 1008.2 |
| 20260504214210 | 26 | 230 | 16.1 | 35.4 | 0.00 | 0.00 | 0.00 | 40 | 1008.3 |
| 20260504213707 | 26 | 264 | 8.0 | 27.4 | 0.00 | 0.00 | 0.00 | 40 | 1008.1 |
| 20260504213203 | 26 | 245 | 16.1 | 32.2 | 0.00 | 0.00 | 0.00 | 40 | 1008.2 |
| 20260504212700 | 26 | 242 | 38.6 | 40.2 | 0.00 | 0.00 | 0.00 | 39 | 1008.1 |
| 20260504212157 | 26 | 255 | 12.9 | 27.4 | 0.00 | 0.00 | 0.00 | 38 | 1008.0 |
| 20260504211654 | 26 | 258 | 14.5 | 32.2 | 0.00 | 0.00 | 0.00 | 39 | 1008.1 |
| 20260504211150 | 26 | 234 | 20.9 | 30.6 | 0.00 | 0.00 | 0.00 | 38 | 1008.2 |
| 20260504210648 | 27 | 245 | 14.5 | 29.0 | 0.00 | 0.00 | 0.00 | 38 | 1008.3 |
| 20260504210144 | 26 | 253 | 14.5 | 33.8 | 0.00 | 0.00 | 0.00 | 36 | 1008.2 |
| 20260504205642 | 26 | 268 | 12.9 | 35.4 | 0.00 | 0.00 | 0.00 | 38 | 1008.3 |
| 20260504205139 | 26 | 267 | 8.0 | 35.4 | 0.00 | 0.00 | 0.00 | 36 | 1008.4 |
| 20260504204637 | 26 | 232 | 9.7 | 37.0 | 0.00 | 0.00 | 0.00 | 37 | 1008.3 |
| 20260504204136 | 26 | 247 | 22.5 | 38.6 | 0.00 | 0.00 | 0.00 | 36 | 1008.4 |
| 20260504203634 | 26 | 255 | 17.7 | 46.7 | 0.00 | 0.00 | 0.00 | 36 | 1008.5 |
| 20260504203132 | 26 | 273 | 22.5 | 29.0 | 0.00 | 0.00 | 0.00 | 37 | 1008.3 |
| 20260504202632 | 26 | 244 | 24.1 | 38.6 | 0.00 | 0.00 | 0.00 | 37 | 1008.6 |
| 20260504202129 | 26 | 255 | 16.1 | 27.4 | 0.00 | 0.00 | 0.00 | 37 | 1008.7 |
| 20260504201625 | 26 | 260 | 30.6 | 43.5 | 0.00 | 0.00 | 0.00 | 37 | 1008.7 |
| 20260504201124 | 26 | 255 | 11.3 | 29.0 | 0.00 | 0.00 | 0.00 | 37 | 1008.9 |
| 20260504200620 | 26 | 235 | 22.5 | 45.1 | 0.00 | 0.00 | 0.00 | 38 | 1009.1 |
| 20260504200117 | 26 | 233 | 20.9 | 40.2 | 0.00 | 0.00 | 0.00 | 37 | 1008.8 |
| 20260504195613 | 26 | 242 | 14.5 | 35.4 | 0.00 | 0.00 | 0.00 | 39 | 1008.9 |
| 20260504195109 | 26 | 235 | 27.4 | 35.4 | 0.00 | 0.00 | 0.00 | 37 | 1008.9 |
| 20260504194606 | 26 | 238 | 33.8 | 56.3 | 0.00 | 0.00 | 0.00 | 37 | 1009.0 |
| 20260504194101 | 26 | 256 | 20.9 | 53.1 | 0.00 | 0.00 | 0.00 | 38 | 1009.0 |
| 20260504193558 | 26 | 250 | 12.9 | 51.5 | 0.00 | 0.00 | 0.00 | 37 | 1009.2 |
| 20260504193057 | 26 | 233 | 14.5 | 33.8 | 0.00 | 0.00 | 0.00 | 38 | 1009.2 |
| 20260504192555 | 26 | 240 | 24.1 | 38.6 | 0.00 | 0.00 | 0.00 | 37 | 1009.2 |
| 20260504192052 | 26 | 254 | 17.7 | 35.4 | 0.00 | 0.00 | 0.00 | 38 | 1009.1 |
| 20260504191550 | 26 | 276 | 14.5 | 29.0 | 0.00 | 0.00 | 0.00 | 37 | 1009.2 |
| 20260504191046 | 26 | 246 | 14.5 | 35.4 | 0.00 | 0.00 | 0.00 | 36 | 1009.2 |
| 20260504190543 | 26 | 229 | 14.5 | 38.6 | 0.00 | 0.00 | 0.00 | 38 | 1009.2 |
| 20260504190039 | 26 | 244 | 45.1 | 54.7 | 0.00 | 0.00 | 0.00 | 36 | 1009.4 |
| 20260504185536 | 25 | 224 | 17.7 | 37.0 | 0.00 | 0.00 | 0.00 | 38 | 1009.6 |
| 20260504185032 | 26 | 253 | 25.7 | 38.6 | 0.00 | 0.00 | 0.00 | 39 | 1009.6 |
| 20260504184528 | 26 | 244 | 20.9 | 48.3 | 0.00 | 0.00 | 0.00 | 37 | 1009.5 |
| 20260504184023 | 26 | 229 | 16.1 | 41.8 | 0.00 | 0.00 | 0.00 | 38 | 1009.6 |
| 20260504183521 | 26 | 274 | 24.1 | 33.8 | 0.00 | 0.00 | 0.00 | 38 | 1009.6 |
| 20260504183019 | 26 | 265 | 33.8 | 37.0 | 0.00 | 0.00 | 0.00 | 38 | 1009.8 |
| 20260504182515 | 26 | 231 | 27.4 | 33.8 | 0.00 | 0.00 | 0.00 | 38 | 1009.8 |
| 20260504182013 | 26 | 241 | 20.9 | 51.5 | 0.00 | 0.00 | 0.00 | 39 | 1010.0 |
| 20260504181510 | 26 | 237 | 16.1 | 37.0 | 0.00 | 0.00 | 0.00 | 36 | 1009.9 |
| 20260504181008 | 26 | 220 | 24.1 | 30.6 | 0.00 | 0.00 | 0.00 | 36 | 1010.0 |
| 20260504180507 | 25 | 237 | 19.3 | 33.8 | 0.00 | 0.00 | 0.00 | 39 | 1010.3 |
| 20260504180005 | 25 | 247 | 25.7 | 35.4 | 0.00 | 0.00 | 0.00 | 39 | 1010.2 |
| 20260504175502 | 25 | 253 | 24.1 | 49.9 | 0.00 | 0.00 | 0.00 | 38 | 1010.1 |
| 20260504174959 | 25 | 239 | 17.7 | 41.8 | 0.00 | 0.00 | 0.00 | 40 | 1010.1 |
| 20260504174456 | 25 | 251 | 19.3 | 35.4 | 0.00 | 0.00 | 0.00 | 38 | 1010.4 |
| 20260504173954 | 25 | 216 | 25.7 | 33.8 | 0.00 | 0.00 | 0.00 | 37 | 1010.4 |
| 20260504173450 | 25 | 233 | 20.9 | 45.1 | 0.00 | 0.00 | 0.00 | 38 | 1010.5 |
| 20260504172947 | 25 | 225 | 38.6 | 48.3 | 0.00 | 0.00 | 0.00 | 38 | 1010.6 |
| 20260504172443 | 25 | 247 | 19.3 | 37.0 | 0.00 | 0.00 | 0.00 | 38 | 1010.4 |
| 20260504171940 | 25 | 256 | 9.7 | 40.2 | 0.00 | 0.00 | 0.00 | 38 | 1010.4 |
| 20260504171437 | 25 | 242 | 33.8 | 38.6 | 0.00 | 0.00 | 0.00 | 39 | 1010.5 |
| 20260504170934 | 25 | 242 | 17.7 | 59.5 | 0.00 | 0.00 | 0.00 | 39 | 1010.4 |
| 20260504170430 | 25 | 247 | 11.3 | 40.2 | 0.00 | 0.00 | 0.00 | 39 | 1010.4 |
| 20260504160349 | 25 | 258 | 14.5 | 35.4 | 0.00 | 0.00 | 0.00 | 40 | 1011.1 |
| 20260504150814 | 22 | 251 | 14.5 | 32.2 | 0.00 | 0.00 | 0.00 | 52 | 1011.7 |
| 20260504150311 | 22 | 240 | 20.9 | 25.7 | 0.00 | 0.00 | 0.00 | 52 | 1011.5 |
| 20260504141241 | 20 | 236 | 11.3 | 24.1 | 0.00 | 0.00 | 0.00 | 62 | 1012.2 |
| 20260504140737 | 20 | 233 | 14.5 | 25.7 | 0.00 | 0.00 | 0.00 | 63 | 1012.1 |
| 20260504140233 | 20 | 254 | 6.4 | 14.5 | 0.00 | 0.00 | 0.00 | 65 | 1012.1 |
| 20260504130702 | 17 | 255 | 9.7 | 22.5 | 0.00 | 0.00 | 0.00 | 73 | 1012.3 |
| 20260504130157 | 17 | 239 | 11.3 | 19.3 | 0.00 | 0.00 | 0.00 | 74 | 1012.0 |
| 20260504120122 | 15 | 242 | 4.8 | 9.7 | 0.00 | 0.00 | 0.00 | 79 | 1012.1 |
| 20260504110549 | 15 | 243 | 4.8 | 12.9 | 0.00 | 0.00 | 0.00 | 76 | 1011.5 |
| 20260504100511 | 16 | 259 | 3.2 | 14.5 | 0.00 | 0.00 | 0.00 | 73 | 1011.5 |
| 20260504081904 | 16 | 224 | 11.3 | 24.1 | 0.00 | 0.00 | 0.00 | 67 | 1011.5 |
| 20260504081401 | 16 | 236 | 12.9 | 20.9 | 0.00 | 0.00 | 0.00 | 67 | 1011.4 |
| 20260504080856 | 16 | 233 | 9.7 | 24.1 | 0.00 | 0.00 | 0.00 | 66 | 1011.6 |
| 20260504080354 | 16 | 261 | 8.0 | 14.5 | 0.00 | 0.00 | 0.00 | 67 | 1011.5 |
| 20260504070321 | 17 | 253 | 20.9 | 20.9 | 0.00 | 0.00 | 0.00 | 64 | 1012.3 |
| 20260504060241 | 17 | 242 | 12.9 | 19.3 | 0.00 | 0.00 | 0.00 | 63 | 1013.0 |
| 20260504050710 | 17 | 244 | 9.7 | 14.5 | 0.00 | 0.00 | 0.00 | 64 | 1013.2 |
| 20260504050206 | 17 | 257 | 11.3 | 11.3 | 0.00 | 0.00 | 0.00 | 63 | 1013.2 |
| 20260504045704 | 17 | 233 | 6.4 | 11.3 | 0.00 | 0.00 | 0.00 | 64 | 1013.4 |
| 20260504045204 | 17 | 237 | 8.0 | 20.9 | 0.00 | 0.00 | 0.00 | 64 | 1013.5 |
| 20260504044702 | 17 | 245 | 8.0 | 16.1 | 0.00 | 0.00 | 0.00 | 64 | 1013.5 |
| 20260504044159 | 17 | 240 | 8.0 | 12.9 | 0.00 | 0.00 | 0.00 | 64 | 1013.6 |
| 20260504043656 | 17 | 216 | 4.8 | 16.1 | 0.00 | 0.00 | 0.00 | 63 | 1013.5 |
| 20260504043153 | 17 | 293 | 4.8 | 12.9 | 0.00 | 0.00 | 0.00 | 63 | 1013.4 |
| 20260504042650 | 17 | 253 | 8.0 | 20.9 | 0.00 | 0.00 | 0.00 | 63 | 1013.3 |
| 20260504042147 | 17 | 229 | 8.0 | 14.5 | 0.00 | 0.00 | 0.00 | 63 | 1013.7 |
| 20260504041643 | 18 | 241 | 3.2 | 19.3 | 0.00 | 0.00 | 0.00 | 62 | 1013.4 |
| 20260504041138 | 18 | 245 | 6.4 | 14.5 | 0.00 | 0.00 | 0.00 | 62 | 1013.5 |
| 20260504040636 | 18 | 249 | 4.8 | 16.1 | 0.00 | 0.00 | 0.00 | 62 | 1013.5 |
| 20260504040133 | 17 | 242 | 6.4 | 12.9 | 0.00 | 0.00 | 0.00 | 62 | 1013.6 |
| 20260504035629 | 18 | 251 | 6.4 | 11.3 | 0.00 | 0.00 | 0.00 | 62 | 1013.6 |
| 20260504035126 | 17 | 239 | 8.0 | 14.5 | 0.00 | 0.00 | 0.00 | 63 | 1013.7 |
| 20260504034624 | 17 | 230 | 3.2 | 11.3 | 0.00 | 0.00 | 0.00 | 63 | 1013.5 |
| 20260504034121 | 17 | 208 | 3.2 | 8.0 | 0.00 | 0.00 | 0.00 | 64 | 1013.6 |
| 20260504033619 | 17 | 266 | 4.8 | 9.7 | 0.00 | 0.00 | 0.00 | 64 | 1013.7 |
| 20260504033116 | 17 | 249 | 4.8 | 11.3 | 0.00 | 0.00 | 0.00 | 64 | 1013.6 |
| 20260504032612 | 17 | 238 | 0.0 | 8.0 | 0.00 | 0.00 | 0.00 | 63 | 1013.6 |
| 20260504032109 | 18 | 229 | 4.8 | 9.7 | 0.00 | 0.00 | 0.00 | 63 | 1013.7 |
| 20260504031607 | 17 | 185 | 0.0 | 11.3 | 0.00 | 0.00 | 0.00 | 64 | 1013.6 |
| 20260504031103 | 17 | 237 | 14.5 | 14.5 | 0.00 | 0.00 | 0.00 | 63 | 1013.8 |
| 20260504030600 | 17 | 234 | 3.2 | 9.7 | 0.00 | 0.00 | 0.00 | 64 | 1013.7 |
| 20260504030056 | 17 | 241 | 4.8 | 8.0 | 0.00 | 0.00 | 0.00 | 64 | 1013.8 |
| 20260504025553 | 17 | 239 | 4.8 | 9.7 | 0.00 | 0.00 | 0.00 | 64 | 1013.9 |
| 20260504025050 | 17 | 238 | 3.2 | 9.7 | 0.00 | 0.00 | 0.00 | 64 | 1013.8 |
| 20260504024547 | 17 | 252 | 4.8 | 11.3 | 0.00 | 0.00 | 0.00 | 64 | 1013.9 |
| 20260504024044 | 18 | 204 | 3.2 | 11.3 | 0.00 | 0.00 | 0.00 | 64 | 1013.7 |
| 20260504023540 | 18 | 229 | 4.8 | 9.7 | 0.00 | 0.00 | 0.00 | 64 | 1013.6 |
| 20260504023036 | 18 | 241 | 3.2 | 12.9 | 0.00 | 0.00 | 0.00 | 63 | 1013.6 |
| 20260504022532 | 18 | 246 | 4.8 | 14.5 | 0.00 | 0.00 | 0.00 | 62 | 1013.9 |
| 20260504022029 | 18 | 247 | 6.4 | 11.3 | 0.00 | 0.00 | 0.00 | 62 | 1013.6 |
| 20260504021526 | 18 | 235 | 6.4 | 12.9 | 0.00 | 0.00 | 0.00 | 61 | 1013.6 |
| 20260504021023 | 18 | 231 | 6.4 | 11.3 | 0.00 | 0.00 | 0.00 | 60 | 1013.5 |
| 20260504020520 | 18 | 238 | 8.0 | 14.5 | 0.00 | 0.00 | 0.00 | 60 | 1013.6 |
| 20260504020017 | 18 | 243 | 6.4 | 11.3 | 0.00 | 0.00 | 0.00 | 59 | 1013.4 |
| 20260504015513 | 18 | 222 | 4.8 | 14.5 | 0.00 | 0.00 | 0.00 | 58 | 1013.6 |
| 20260504015009 | 18 | 269 | 4.8 | 11.3 | 0.00 | 0.00 | 0.00 | 58 | 1013.5 |
| 20260504014505 | 18 | 249 | 6.4 | 9.7 | 0.00 | 0.00 | 0.00 | 57 | 1013.3 |
| 20260504014003 | 19 | 246 | 4.8 | 11.3 | 0.00 | 0.00 | 0.00 | 57 | 1013.4 |
| 20260504013501 | 19 | 210 | 4.8 | 14.5 | 0.00 | 0.00 | 0.00 | 56 | 1013.3 |
| 20260504012956 | 19 | 238 | 8.0 | 11.3 | 0.00 | 0.00 | 0.00 | 55 | 1013.4 |
| 20260504012454 | 19 | 253 | 9.7 | 12.9 | 0.00 | 0.00 | 0.00 | 54 | 1013.4 |